Theta_e
303 304 305 306 307 307 307 308 308 307 307 307 307 307 307 307 307 309 310 313 315 317 320 322 324 325 325 325 325 325 324 324 325 325 325 326 324 324 325 323 326 326 324 322 320 318 318 318 316 315 318 318
300 301 302 303 303 304 305 305 305 306 306 305 305 304 303 303 303 305 307 308 310 312 314 316 318 320 321 322 324 324 325 324 324 323 324 324 324 324 324 324 324 325 324 322 320 318 318 317 315 315 316 317
295 299 299 300 301 301 301 303 304 304 303 303 302 302 301 301 301 302 303 305 307 308 309 310 313 317 316 316 317 318 321 323 324 323 323 324 324 324 323 324 325 325 325 322 321 318 317 316 315 314 315 316
293 296 297 298 299 299 299 300 300 301 301 301 300 300 300 299 298 299 299 301 300 305 306 305 307 312 316 316 314 313 315 317 321 323 323 323 322 321 321 321 323 324 325 323 321 319 317 316 315 313 314 315
293 293 295 295 296 297 297 298 298 299 298 299 298 298 298 297 296 297 297 296 296 301 301 303 305 308 310 312 313 313 314 314 314 315 319 319 319 319 319 320 321 322 324 323 321 319 317 315 312 313 314 315
293 294 294 293 293 293 293 296 296 296 295 297 296 297 296 295 295 296 295 296 297 297 297 299 303 305 306 308 310 310 311 311 314 315 313 316 317 317 318 319 323 322 322 322 321 317 316 312 309 312 314 314
293 293 293 293 292 293 293 294 294 294 295 295 295 295 295 295 295 295 295 295 297 296 297 297 300 302 303 305 308 308 308 308 310 312 314 315 315 315 316 320 324 323 324 322 316 314 314 311 309 308 311 313
292 293 292 292 292 293 292 292 292 293 295 295 295 294 295 294 295 295 295 296 296 296 294 295 297 299 301 302 303 305 305 306 307 307 309 310 311 312 313 316 319 321 324 320 316 314 312 309 305 304 306 310
291 292 292 293 292 292 292 292 292 292 293 294 295 295 294 295 294 294 293 294 294 294 295 295 295 295 296 298 299 302 302 302 304 305 306 306 307 308 309 312 315 319 319 321 317 315 312 306 304 302 303 305
291 291 291 292 292 292 292 292 292 292 293 293 294 294 294 294 293 293 293 293 293 294 294 295 294 294 294 295 297 298 299 300 301 302 304 305 305 306 306 308 311 315 317 317 319 315 310 304 302 301 302 303
290 290 290 291 292 292 292 292 292 292 292 293 293 293 293 293 292 292 292 292 293 293 294 293 294 293 294 294 295 297 297 298 299 299 301 302 303 304 306 306 307 311 314 316 315 315 309 303 301 301 302 303
289 289 290 290 291 291 292 292 291 291 292 293 292 293 292 293 292 292 291 292 292 293 293 293 294 294 294 294 294 295 297 297 297 297 299 300 301 301 304 306 305 306 310 311 312 310 308 304 300 301 302 301
288 289 289 289 289 290 292 291 291 292 292 292 292 292 292 293 291 291 291 291 291 292 293 294 295 294 294 294 294 294 294 296 296 296 297 299 299 301 302 302 305 305 305 308 308 307 306 304 301 300 301 301
287 288 288 288 289 289 290 290 291 292 292 292 292 291 292 292 291 291 291 291 291 291 292 293 294 294 293 293 293 294 293 294 295 295 295 296 298 298 300 301 302 304 303 305 303 306 304 302 299 299 300 301
286 287 287 288 288 289 289 290 291 291 291 292 292 292 292 291 291 291 291 291 291 291 291 292 293 293 293 293 294 294 293 294 296 296 295 295 296 297 298 299 301 303 304 304 303 303 302 301 298 296 298 301
285 286 286 287 287 288 289 289 289 290 291 291 291 292 291 291 291 291 290 291 291 291 291 291 292 292 293 293 294 293 293 294 295 297 296 296 297 297 297 297 299 301 303 304 304 302 301 301 298 297 296 296
284 284 284 285 285 286 287 288 288 289 290 291 291 291 291 291 291 291 290 290 290 291 290 290 291 292 292 293 294 295 294 294 294 294 295 294 297 296 296 296 296 300 301 302 303 302 299 298 298 297 296 295
283 283 283 284 284 285 285 286 287 288 290 290 290 291 291 291 291 290 290 290 290 290 290 290 290 291 291 293 294 294 294 293 293 293 293 293 294 294 295 294 295 295 296 299 301 301 301 301 300 299 297 296
282 282 282 282 283 283 285 285 285 286 288 289 289 289 289 290 290 290 290 290 289 289 290 289 289 290 290 292 293 292 293 293 294 294 293 293 292 292 295 294 294 294 294 295 297 299 300 299 300 299 298 298
282 282 282 282 283 282 284 284 285 285 286 287 287 288 288 289 290 290 289 289 289 288 289 289 289 289 291 291 291 292 293 293 292 293 294 294 293 291 291 294 293 294 293 294 295 298 299 299 298 298 298 297
283 282 282 282 282 282 283 283 284 284 285 286 286 286 286 287 288 289 289 289 289 288 288 288 289 290 290 291 290 291 292 292 293 292 293 292 293 293 290 290 291 293 292 292 293 295 298 298 298 297 297 297
281 282 282 282 282 283 282 282 282 282 283 283 284 285 285 286 287 288 289 289 288 288 288 288 288 289 290 290 290 290 291 291 292 292 292 291 292 292 291 290 290 289 291 293 293 293 295 296 297 297 297 297
282 282 282 282 282 282 282 282 281 281 281 282 282 282 284 285 286 286 287 288 288 287 287 287 287 288 289 290 289 289 289 290 291 291 292 292 291 292 292 291 291 291 290 291 292 292 293 295 296 297 297 297
281 281 281 280 281 281 281 281 281 281 280 281 281 282 282 283 284 285 285 287 288 287 287 286 287 287 288 289 288 288 288 288 289 289 290 291 291 291 291 292 291 291 290 290 290 292 293 294 295 296 297 297
280 280 280 280 280 279 280 280 280 280 280 281 281 281 281 282 282 284 284 286 287 286 286 286 286 287 287 288 288 288 288 288 289 289 290 290 291 290 290 289 291 291 291 289 288 290 290 293 295 295 296 296
280 281 280 279 279 279 279 279 279 279 280 280 280 281 281 281 282 282 284 284 286 285 285 285 285 285 286 287 287 287 288 288 288 289 289 290 289 291 289 288 290 290 291 288 286 285 286 288 292 296 296 295
280 280 281 280 280 280 279 280 280 280 280 280 280 280 281 281 281 281 281 282 283 283 284 284 284 285 285 287 287 286 286 287 287 288 288 289 288 288 290 290 291 290 290 286 287 288 287 285 285 289 293 294
281 281 281 281 281 280 280 279 280 280 280 280 280 279 280 280 281 281 281 282 281 281 282 282 283 284 284 285 287 286 285 286 286 287 288 288 289 289 286 287 288 291 290 289 286 282 283 284 285 282 286 291
281 281 281 281 281 280 279 279 279 279 278 279 279 279 279 279 280 280 280 280 281 281 281 281 282 283 284 284 286 286 285 285 286 287 288 288 288 287 286 286 287 289 290 290 290 286 284 282 282 283 287 292
281 280 279 278 277 276 276 276 276 276 276 277 276 277 278 279 279 278 278 279 280 280 280 281 281 282 283 283 285 286 285 285 286 286 286 287 287 287 287 286 286 286 289 290 290 290 288 286 283 284 289 287
281 279 278 277 277 276 275 275 276 277 277 276 277 278 277 277 278 278 277 278 279 280 280 280 281 281 282 283 285 285 285 284 285 285 286 287 286 286 287 287 284 284 286 288 289 290 290 290 289 288 285 282
Wind_Speed
24 24 24 24 23 22 22 22 22 23 23 23 24 24 25 25 24 23 22 22 21 21 21 19 20 20 19 17 15 12 9 7 8 9 10 12 8 7 8 9 10 15 15 14 12 11 11 11 9 6 6 5
24 23 23 23 22 22 22 21 21 22 22 22 22 23 23 22 22 22 22 21 22 22 21 20 19 19 19 19 19 18 18 15 10 7 9 11 15 6 6 6 11 13 16 16 13 11 10 11 9 8 7 6
16 22 21 21 21 21 21 20 21 21 20 20 20 20 19 21 21 20 20 21 19 21 22 22 20 20 19 18 20 19 17 17 17 16 14 16 13 14 6 11 15 13 17 16 15 12 10 9 9 9 8 7
13 16 18 19 19 20 20 20 19 19 18 18 18 17 17 17 14 15 14 21 15 18 18 20 18 20 20 19 18 18 18 17 16 16 17 16 15 13 10 4 9 12 17 17 16 14 12 8 9 8 7 7
11 12 14 13 16 17 17 17 16 17 16 15 14 14 14 12 11 10 10 12 12 14 12 15 17 18 19 18 18 17 17 17 15 16 16 15 14 12 11 3 3 10 17 16 15 14 11 8 7 7 7 7
9 9 11 11 10 11 12 12 12 11 10 10 9 12 9 8 8 7 8 9 11 9 12 11 15 15 16 17 17 16 15 15 16 15 15 14 12 11 11 5 3 7 11 11 11 10 9 7 7 6 6 7
9 10 9 10 10 8 11 10 11 10 9 8 8 8 7 7 6 7 7 8 9 9 14 13 15 16 16 16 15 15 12 13 15 15 14 13 10 9 9 5 2 4 6 8 11 11 9 6 4 2 2 5
10 9 9 8 9 8 8 9 8 8 8 8 7 6 6 6 6 6 6 9 11 10 8 10 14 15 13 13 13 15 9 9 10 11 10 10 11 7 5 4 3 2 4 8 8 8 8 6 4 4 2 3
10 10 9 9 9 8 8 8 8 7 7 7 8 7 5 5 5 5 5 6 6 7 7 7 7 8 9 8 9 12 8 8 7 6 5 5 6 5 5 3 4 3 3 3 8 8 7 6 4 4 3 2
10 11 10 10 10 9 8 8 8 8 8 7 7 6 5 5 5 5 5 5 6 7 7 7 7 8 8 8 8 9 7 7 7 7 6 5 5 4 4 5 2 3 3 3 4 5 5 6 5 4 4 4
10 10 10 10 9 9 9 8 9 8 8 8 7 8 7 6 5 4 4 5 5 6 6 6 6 6 7 7 8 7 7 8 8 7 6 6 5 4 3 4 5 2 1 3 3 4 3 5 5 5 5 5
11 10 11 10 10 9 10 9 8 8 8 7 7 8 8 8 7 6 6 6 6 5 5 5 5 5 5 5 6 7 6 7 7 7 7 6 6 5 3 4 4 5 3 1 0 2 3 4 5 6 5 5
11 11 10 10 10 10 10 8 9 9 8 7 7 7 8 9 8 7 7 7 7 6 6 5 4 4 4 4 4 5 5 5 6 7 7 7 6 5 5 4 4 3 5 3 3 3 3 4 5 5 6 6
11 11 11 11 11 10 10 9 9 10 7 7 7 7 8 8 8 8 7 8 7 7 6 6 4 4 4 4 4 4 5 4 4 5 6 7 6 6 5 4 4 4 3 5 3 4 5 4 4 4 4 6
11 11 11 11 10 10 10 11 9 8 8 7 7 7 8 8 8 8 7 7 8 7 7 6 5 4 3 3 3 3 3 4 3 3 4 6 6 6 5 4 4 3 3 4 4 4 5 7 5 4 5 3
11 11 11 11 10 10 10 11 9 9 9 8 8 8 8 9 8 9 8 8 7 7 7 7 6 5 4 4 3 3 3 3 3 2 3 4 4 5 4 4 4 3 3 3 4 4 5 4 6 7 4 4
10 10 10 11 11 11 11 11 10 9 9 8 9 9 9 9 10 9 8 8 9 8 7 7 7 6 6 5 4 4 4 5 4 4 3 3 3 3 3 4 4 3 2 3 4 4 4 3 5 5 6 7
9 9 9 10 10 11 12 10 10 10 9 9 9 9 10 10 10 10 9 9 9 8 7 7 7 7 6 6 5 5 5 5 4 4 5 4 3 2 2 3 3 4 4 3 3 4 5 5 6 6 6 6
8 8 8 8 9 10 11 11 10 10 9 9 9 10 9 10 10 10 10 10 9 9 8 8 7 7 6 6 7 6 5 5 5 5 6 5 4 3 1 1 2 3 4 4 4 4 4 6 6 5 6 7
6 7 7 7 7 8 10 10 10 10 10 10 10 10 10 11 11 10 10 10 9 9 8 8 7 7 6 7 7 6 6 6 6 6 6 5 5 5 4 1 1 1 3 4 5 5 4 5 5 6 6 6
7 7 7 7 7 7 8 9 9 9 10 10 10 10 10 11 12 12 11 11 10 9 9 8 8 7 7 6 6 6 6 6 6 7 6 6 6 5 6 4 4 2 2 4 5 5 5 4 6 6 6 7
6 6 7 6 6 7 7 8 8 9 9 10 10 10 11 12 12 12 12 12 11 10 10 9 8 8 7 7 6 6 6 6 6 6 7 7 7 6 6 6 5 5 4 3 4 5 5 5 6 7 8 7
6 6 6 6 6 6 7 6 6 8 8 9 10 10 12 13 12 12 12 13 13 13 11 10 9 9 8 7 6 6 6 6 6 7 7 7 7 7 7 7 7 6 5 6 5 5 6 6 7 6 8 8
6 6 7 7 7 8 7 7 7 7 8 9 9 11 12 13 12 12 12 12 13 13 12 11 10 10 9 8 7 7 7 7 6 7 7 8 8 8 8 7 7 7 6 6 7 8 7 7 8 9 8 9
8 8 8 7 8 9 9 8 8 8 8 8 10 12 12 12 11 12 13 13 12 13 13 12 11 10 9 8 8 7 7 7 8 7 7 7 7 8 8 8 8 8 6 6 8 8 9 8 8 9 9 10
8 8 8 8 8 9 9 9 8 9 8 9 10 11 11 11 11 12 12 12 12 12 12 12 11 10 10 9 8 7 8 8 8 8 8 7 8 8 9 9 8 9 8 7 6 7 7 8 7 7 7 10
9 9 9 10 10 10 10 9 9 9 10 10 10 10 10 11 11 12 12 12 12 12 12 12 12 11 10 10 10 10 9 8 8 8 9 9 8 9 9 10 10 9 9 8 7 6 7 7 7 6 7 9
10 11 12 12 11 11 11 11 11 11 10 9 10 10 10 10 11 11 12 13 13 13 13 13 13 12 11 10 11 11 11 10 9 8 8 8 9 8 10 10 9 10 11 9 7 6 6 7 7 8 9 8
12 12 13 12 13 10 10 10 9 10 10 9 9 10 10 11 11 13 15 16 16 14 14 14 13 13 12 12 11 10 11 11 9 8 8 8 9 10 10 11 10 10 10 11 11 8 6 5 6 8 8 6
13 13 13 12 11 12 12 12 11 12 13 11 11 12 12 13 14 16 17 16 16 15 15 14 14 14 13 12 11 11 11 11 10 9 9 8 8 9 9 8 9 10 9 9 11 12 11 9 6 5 3 4
14 12 9 10 11 11 12 12 13 12 13 13 12 12 14 14 15 16 17 16 14 14 15 15 14 14 13 13 12 12 12 11 11 10 9 6 7 8 8 9 9 10 8 9 10 11 12 12 11 9 8 5
Wind_Direction
35 37 38 40 40 40 39 38 38 39 41 42 37 32 28 21 14 19 24 23 30 31 28 28 29 31 31 25 26 26 9 1 357 346 354 349 242 231 229 206 187 184 183 180 182 183 172 165 165 179 222 185
34 34 36 37 38 37 37 36 37 36 36 38 37 37 30 20 15 9 15 19 24 27 27 21 28 34 30 26 26 24 20 20 13 9 354 16 9 308 217 232 209 185 170 174 179 185 177 169 168 174 210 195
33 33 33 34 34 36 35 35 35 35 35 35 34 36 32 25 14 8 7 12 17 25 26 20 16 22 35 34 28 27 27 20 18 20 26 25 17 21 249 204 205 186 178 173 179 180 183 178 173 172 194 200
37 32 33 33 33 33 32 32 33 33 31 31 31 30 30 25 16 8 4 9 7 18 25 21 16 17 21 28 34 29 24 28 23 22 24 22 23 20 19 316 251 191 182 179 181 174 181 184 173 180 202 196
34 32 32 31 33 32 29 28 29 29 27 24 22 24 25 23 19 6 7 3 1 8 15 20 18 16 17 21 23 30 28 24 27 29 24 24 19 16 2 4 250 219 175 180 181 173 173 170 194 205 208 194
26 25 28 30 29 31 26 24 23 27 23 19 19 17 22 20 16 7 4 3 3 6 6 10 15 15 13 14 20 19 27 29 18 30 32 27 21 16 6 337 219 232 187 184 177 154 155 173 208 217 214 201
21 20 21 22 24 26 26 23 24 24 24 23 17 10 10 17 11 6 358 356 2 14 10 10 9 9 9 7 12 9 17 26 26 19 28 28 21 18 9 4 329 240 192 181 150 155 172 195 192 221 245 215
17 14 16 16 15 16 19 19 21 21 21 23 16 9 9 5 3 357 356 350 358 8 13 18 8 3 2 4 3 1 5 12 25 23 20 21 9 5 15 6 343 297 237 178 175 182 189 187 174 172 217 240
15 8 10 12 10 9 14 11 13 17 18 22 17 17 4 3 2 354 353 350 350 2 5 10 13 12 4 359 357 359 2 1 -0 11 17 15 18 11 352 9 358 317 309 246 183 189 188 172 174 171 192 255
9 8 6 4 7 360 8 3 7 11 13 13 16 10 10 1 2 360 354 354 355 357 3 6 11 11 9 4 355 356 353 353 355 355 3 9 27 16 5 339 356 350 287 289 248 197 185 171 170 189 196 218
10 8 5 1 359 354 2 355 360 4 2 4 4 7 7 0 360 358 2 1 -0 358 357 4 2 6 6 6 359 352 349 349 349 352 352 355 8 17 3 358 339 341 326 276 294 244 205 180 177 192 199 202
6 5 3 360 355 353 354 348 353 356 353 352 356 7 1 358 351 354 357 4 359 358 1 356 354 355 357 4 355 348 348 348 347 345 344 345 348 355 15 3 360 331 321 203 154 295 228 214 197 197 191 197
3 360 359 357 354 351 348 347 346 343 341 347 350 358 2 355 349 350 351 355 355 353 355 350 347 343 348 347 348 347 343 352 347 343 338 338 340 345 351 360 1 347 321 306 181 176 207 232 223 220 193 198
358 357 356 355 352 349 348 347 336 334 336 340 344 348 358 350 349 346 345 347 345 346 343 344 340 337 332 338 337 339 337 350 348 341 335 331 333 338 341 348 355 342 318 306 282 184 172 192 245 251 231 211
356 355 354 351 347 347 349 343 333 332 331 335 337 345 349 343 345 340 338 340 340 336 332 329 332 329 320 302 302 313 316 335 337 325 328 327 327 332 335 335 343 332 313 292 289 284 200 187 180 250 252 262
355 355 352 349 347 345 346 339 336 331 326 328 333 335 339 338 337 333 328 330 332 329 322 317 321 315 308 299 286 285 289 306 300 289 292 300 314 321 323 328 328 330 305 287 282 262 272 248 197 201 215 250
354 354 352 352 347 345 340 335 336 332 325 325 329 331 334 334 330 327 324 323 321 319 313 312 310 306 302 300 297 294 287 283 282 280 277 290 294 321 330 327 326 328 313 299 279 266 268 276 253 229 210 210
352 351 352 350 349 346 343 335 331 331 330 330 331 330 329 328 329 326 321 321 317 313 310 308 303 302 303 297 305 295 286 276 268 275 282 293 295 301 341 331 331 332 314 306 309 281 261 248 242 236 226 210
348 347 347 346 348 346 343 337 330 328 330 329 325 324 321 325 326 324 323 320 317 312 308 305 303 301 298 306 305 295 290 288 280 275 280 282 292 297 280 282 318 315 316 312 297 288 267 252 255 263 246 231
336 335 337 337 341 344 343 337 335 334 331 327 322 320 318 319 319 320 318 318 316 311 306 304 301 301 305 307 296 294 292 284 276 276 275 279 276 289 287 249 271 268 293 295 294 284 276 269 248 249 251 243
327 327 329 329 334 338 342 339 340 336 331 325 323 320 318 319 318 312 309 311 312 307 304 301 300 299 301 303 301 294 291 280 277 273 269 272 275 274 288 290 290 271 251 282 282 284 276 260 254 240 246 250
315 314 318 318 327 332 337 340 338 334 327 324 318 318 315 317 315 309 304 302 305 305 301 298 296 295 294 294 293 290 288 283 280 278 274 273 271 274 275 275 273 281 282 269 275 277 272 271 253 251 242 239
297 301 310 311 318 326 330 333 334 328 325 323 322 315 313 310 309 308 305 299 297 297 300 297 295 292 291 292 288 285 282 280 273 267 264 263 265 263 259 270 278 281 285 285 284 270 267 266 261 259 252 239
299 307 314 320 317 321 322 328 327 323 321 319 320 317 315 309 304 303 304 301 296 293 294 295 293 291 289 286 282 280 278 275 272 274 273 264 257 257 258 249 259 263 269 275 275 273 258 245 257 254 246 245
308 313 314 316 318 318 321 322 320 317 315 317 312 312 310 308 303 302 302 300 294 290 292 290 291 290 286 280 275 273 273 275 279 280 277 276 268 257 252 253 251 258 259 269 272 266 266 252 228 234 236 238
301 306 315 313 312 313 312 313 311 310 308 307 308 305 307 307 307 305 304 303 298 295 292 291 289 288 283 278 273 275 278 278 275 274 269 265 261 248 248 252 248 254 254 253 259 274 276 270 251 215 218 231
298 305 308 306 299 306 306 300 298 296 297 296 296 299 303 306 305 303 299 299 299 295 292 289 287 285 282 277 272 272 273 270 264 261 260 255 257 259 247 252 253 245 243 259 262 267 273 267 274 227 217 230
291 297 298 293 292 294 295 296 296 290 287 288 292 297 302 306 301 298 297 298 295 289 286 286 284 282 278 275 270 268 269 266 264 259 254 251 248 250 259 251 248 241 244 242 248 253 241 257 256 265 245 231
296 298 296 294 293 286 286 284 288 289 289 291 296 299 299 297 303 303 296 289 284 280 279 279 278 276 277 274 269 265 262 260 256 255 248 250 251 249 251 253 253 249 245 245 243 253 260 253 248 247 263 338
306 304 301 301 302 299 298 297 299 298 300 303 300 295 296 299 299 295 292 283 278 277 276 274 272 270 269 267 261 255 256 256 253 247 247 244 248 248 246 254 255 253 246 245 245 243 247 257 278 286 318 316
316 312 311 307 302 299 299 299 297 301 302 300 298 299 296 293 293 291 285 278 275 275 274 274 272 270 266 262 256 252 248 248 248 247 244 241 245 250 248 242 247 245 249 249 242 242 244 249 251 260 268 266